Cold Bay, AK

1:39 AM AKST on February 28, 2017 (GMT -0900)
Cold Bay

Weather History for PACD - December, 2012

Change the Weather History Date:

Saturday, December 1, 2012

  Actual Average Record
Temperature  
Mean Temperature 29 °F 33 °F  
Max Temperature 32 °F 37 °F 45 °F (1955)
Min Temperature 25 °F 28 °F 12 °F (1971)
Degree Days  
Heating Degree Days 36 32  
Month to date heating degree days 36 32  
Since 1 July heating degree days 3325 3052  
Cooling Degree Days 0 0  
Month to date cooling degree days 0 0  
Year to date cooling degree days 0 0  
Moisture  
Dew Point 25 °F    
Average Humidity 83    
Maximum Humidity 93    
Minimum Humidity 70    
Precipitation  
Precipitation 0.00 in 0.17 in 1.24 in (1992)
Month to date precipitation 0.00 0.17  
Year to date precipitation 40.39 37.38  
Snow  
Snow 0.00 in 0.40 in 2.50 in (1998)
Month to date snowfall 0.0 0.4  
Since 1 July snowfall 9.0 13.0  
Snow Depth 2.00 in    
Sea Level Pressure  
Sea Level Pressure 30.05 in    
Wind  
Wind Speed 0 mph (NW)    
Max Wind Speed 23 mph    
Max Gust Speed 28 mph    
Visibility 8 miles    
Events Snow    
T = Trace of Precipitation, MM = Missing Value Source: NWS Daily Summary

Daily Weather History Graph

Daily Weather History Graph

Search for Another Location

Airport or City:

Trip Planner

Search our weather history database for the weather conditions in past years. The results will help you decide how hot, cold, wet, or windy it might be!

Date:

Astronomy

Dec. 01, 2012 Rise Set
Actual Time 9:54 AM AKST 5:25 PM AKST
Civil Twilight 9:10 AM AKST 6:10 PM AKST
Nautical Twilight 8:23 AM AKST 6:56 PM AKST
Astronomical Twilight 7:39 AM AKST 7:40 PM AKST
Moon 8:38 PM AKST (12/1) 12:06 PM AKST (12/1)
Length of Visible Light 8h 59m
Length of Day
7h 31m
Waning Gibbous, 91% of the Moon is Illuminated
Dec 1
Waning Gibbous
Dec 6
Last Quarter
Dec 12
New
Dec 19
First Quarter
Dec 28
Full

Hourly Weather History & Observations

Time (AKST) Temp. Windchill Dew Point Humidity Pressure Visibility Wind Dir Wind Speed Gust Speed Precip Events Conditions
12:53 AM 30.0 °F 19.1 °F 25.0 °F 82% 30.01 in 10.0 mi NNW 15.0 mph - N/A   Overcast
1:53 AM 30.0 °F 19.5 °F 25.0 °F 82% 30.01 in 10.0 mi NNW 13.8 mph - N/A   Overcast
3:53 AM 28.9 °F 17.3 °F 24.1 °F 82% 30.01 in 10.0 mi NNW 16.1 mph - N/A   Overcast
4:53 AM 28.9 °F 17.3 °F 24.1 °F 82% 30.01 in 10.0 mi NNW 16.1 mph - N/A   Overcast
5:53 AM 28.9 °F 18.2 °F 24.1 °F 82% 30.03 in 10.0 mi NW 13.8 mph - N/A   Mostly Cloudy
6:53 AM 28.0 °F 17.5 °F 23.0 °F 81% 30.04 in 10.0 mi NW 12.7 mph - N/A   Mostly Cloudy
7:53 AM 28.0 °F 18.1 °F 23.0 °F 81% 30.06 in 10.0 mi NW 11.5 mph - N/A   Mostly Cloudy
8:00 AM 26.6 °F 16.2 °F 23.0 °F 86% 30.05 in 10.0 mi NW 11.5 mph - N/A   Scattered Clouds
8:53 AM 26.1 °F 16.8 °F 21.9 °F 84% 30.06 in 10.0 mi NW 9.2 mph - N/A   Clear
9:22 AM 26.6 °F 16.2 °F 23.0 °F 86% 30.06 in 10.0 mi NW 11.5 mph - N/A   Mostly Cloudy
9:50 AM 26.6 °F 16.8 °F 23.0 °F 86% 30.06 in 10.0 mi NW 10.4 mph - N/A   Scattered Clouds
9:53 AM 27.0 °F 16.7 °F 23.0 °F 85% 30.06 in 10.0 mi NW 11.5 mph - N/A   Partly Cloudy
10:53 AM 28.0 °F 18.1 °F 23.0 °F 81% 30.06 in 10.0 mi NW 11.5 mph - N/A   Mostly Cloudy
11:53 AM 30.0 °F 19.1 °F 25.0 °F 82% 30.07 in 10.0 mi NW 15.0 mph - N/A   Mostly Cloudy
12:53 PM 30.0 °F 17.9 °F 24.1 °F 79% 30.07 in 10.0 mi NNW 18.4 mph - N/A   Mostly Cloudy
1:14 PM 30.2 °F 18.1 °F 24.8 °F 80% 30.06 in 10.0 mi NW 18.4 mph - N/A   Mostly Cloudy
1:53 PM 30.9 °F 19.1 °F 26.1 °F 82% 30.05 in 10.0 mi NW 18.4 mph - N/A   Overcast
2:53 PM 30.9 °F 18.4 °F 26.1 °F 82% 30.05 in 10.0 mi NNW 20.7 mph 27.6 mph N/A   Overcast
3:53 PM 30.0 °F 17.5 °F 25.0 °F 82% 30.03 in 10.0 mi NW 19.6 mph - N/A   Overcast
4:53 PM 30.0 °F 16.6 °F 26.1 °F 85% 30.03 in 6.0 mi NNW 23.0 mph 28.8 mph 0.00 in Snow Light Snow
5:05 PM 30.2 °F 16.5 °F 26.6 °F 86% 30.03 in 2.0 mi NW 24.2 mph - 0.00 in Snow Light Snow
5:17 PM 30.2 °F 15.9 °F 26.6 °F 86% 30.05 in 6.0 mi NNW 26.5 mph 31.1 mph 0.00 in Snow Light Snow
5:24 PM 30.2 °F 15.9 °F 26.6 °F 86% 30.05 in 9.0 mi NNW 26.5 mph 32.2 mph 0.00 in   Overcast
5:53 PM 30.0 °F 16.3 °F 25.0 °F 82% 30.06 in 10.0 mi NNW 24.2 mph 35.7 mph 0.00 in   Overcast
6:39 PM 30.2 °F 17.1 °F 26.6 °F 86% 30.07 in 5.0 mi NNW 21.9 mph 29.9 mph 0.00 in Snow Light Snow
6:53 PM 30.9 °F 17.8 °F 27.0 °F 85% 30.08 in 4.0 mi NNW 23.0 mph - 0.00 in Snow Light Snow
7:53 PM 30.9 °F 17.2 °F 27.0 °F 85% 30.10 in 6.0 mi NNW 25.3 mph 31.1 mph 0.00 in Snow Light Snow
7:57 PM 30.2 °F 17.1 °F 26.6 °F 86% 30.09 in 2.5 mi NNW 21.9 mph 31.1 mph 0.00 in Snow Light Snow
8:05 PM 30.2 °F 18.1 °F 28.4 °F 93% 30.09 in 3.0 mi NNW 18.4 mph 26.5 mph 0.00 in Snow Light Snow
8:53 PM 30.9 °F 17.8 °F 27.0 °F 85% 30.09 in 6.0 mi NW 23.0 mph 28.8 mph 0.00 in   Overcast
9:53 PM 30.9 °F 18.7 °F 26.1 °F 82% 30.07 in 10.0 mi NNW 19.6 mph 27.6 mph 0.00 in   Overcast
10:53 PM 30.9 °F 18.7 °F 27.0 °F 85% 30.05 in 4.0 mi NW 19.6 mph - 0.00 in Snow Light Snow
11:53 PM 30.9 °F 18.4 °F 27.0 °F 85% 30.03 in 10.0 mi NW 20.7 mph - 0.01 in   Overcast